Regional Weather Roundup
Issued by NWS

Home | Current Version | Previous Version | Text Only | Print | Product List | Glossary On
Versions: 1 2 3 4 5 6 7 8 9 10 11 12 13 14 15 16 17 18 19 20 21 22 23 24 25 26 27 28 29 30 31 32 33 34 35 36 37 38 39 40 41 42 43 44 45 46 47 48 49 50
000
ASUS44 KLIX 231913
RWRLA
LOUISIANA WEATHER ROUNDUP
NATIONAL WEATHER SERVICE NEW ORLEANS LA
200 PM CDT MON OCT 23 2017

NOTE: "FAIR" INDICATES FEW OR NO CLOUDS BELOW 12,000 FEET WITH NO
      SIGNIFICANT WEATHER AND/OR OBSTRUCTIONS TO VISIBILITY.
      SKY/WX - SKY CONDITION AND SIGNIFICANT WEATHER.
      TMP - AIR TEMPERATURE.    DP   - DEWPOINT TEMPERATURE.
      RH  - RELATIVE HUMIDITY.  PRES - PRESSURE.
      HX  - HEAT INDEX.         WCI  - WIND CHILL INDEX.

*  THESE STATIONS ARE NOT NWS OR FAA STATIONS AND ARE NOT UNDER
   NWS QUALITY CONTROL.

LAZ040-048-061>063-065-066-069-232000-
SOUTHEAST LOUISIANA

CITY           SKY/WX    TMP DP  RH WIND       PRES   REMARKS
N.O. INTL ARPT MOSUNNY   72  50  45 N15       30.03F
N.O. LAKEFRONT SUNNY     72  54  53 NW18      30.03F
N.O. DOWNTOWN* FAIR      71  49  45 VRB7      30.04F
RESERVE*       FAIR      75  46  34 N12G17    30.04F
SLIDELL        SUNNY     74  49  41 N10G18    30.02F
BATON ROUGE    SUNNY     72  42  34 NW9       30.07F
BOOTHVILLE     SUNNY     73  55  53 N13G18    30.02F
BELLE CHASSE   SUNNY     73  55  53 N12       30.02F
BOGALUSA*      FAIR      74  43  32 N13       30.05F
GALLIANO*      CLEAR     72  50  46 NW9       30.03F
NEW ROADS*     FAIR      70  45  40 NW9       30.08F
GONZALES*      FAIR      73  44  35 N14G20    30.05F
HAMMOND*       SUNNY     73  37  27 N18       30.04F
HOUMA*         SUNNY     72  50  46 N14G20    30.04F
PORT FOURCHON* CLEAR     70  55  60 NW9       30.04F

$$

LAZ041-044-053-054-232000-
SOUTHWEST LOUISIANA

CITY           SKY/WX    TMP DP  RH WIND       PRES   REMARKS
LAKE CHARLES   SUNNY     76  44  32 N10       30.08F
LAFAYETTE      SUNNY     74  43  32 N13       30.07F
PATTERSON      SUNNY     71  51  49 N10       30.06F
SALT POINT       N/A     72  46  39 N9G16     30.05F
NEW IBERIA     SUNNY     72  42  34 N14       30.08F
CHENAULT AIRPK SUNNY     75  45  33 NW9G16    30.09F

$$

LAZ027-028-232000-
CENTRAL LOUISIANA

CITY           SKY/WX    TMP DP  RH WIND       PRES   REMARKS
FORT POLK      SUNNY     73  41  32 CALM      30.08F
ALEXANDRIA INT SUNNY     74  39  28 N9        30.07F
ALEXANDRIA     SUNNY     74  41  30 NW8       30.08F

$$

LAZ001-002-232000-
NORTHWEST LOUISIANA

CITY           SKY/WX    TMP DP  RH WIND       PRES   REMARKS
SHREVEPORT     SUNNY     77  40  26 VRB7      30.06F
BARKSDALE AFB  SUNNY     75  40  28 W7        30.07F
DTN SHREVEPORT SUNNY     75  42  30 CALM      30.07F

$$

LAZ014-016-232000-
NORTHEAST LOUISIANA

CITY           SKY/WX    TMP DP  RH WIND       PRES   REMARKS
MONROE         SUNNY     73  44  35 W8        30.07F
TALLULAH       SUNNY     72  45  37 NW10      30.07F

$$




USA.gov is the U.S. government's official web portal to all federal, state and local government web resources and services.